Volver al catálogo

SL-8 R/B

ActivoPO
NORAD 11239·ROCKET BODY·🇷🇺 Russia

Lanzado Jan 16, 1979 desde Plesetsk Cosmodrome

Loading…

Próximos Pases (próximas 24 horas)

TLE

ActualizadoSource: Space-Track

Época: Sep 14, 2026, 13:00 UTC

1 11239U 79003B   26257.54205655  .00000109  00000-0  96678-4 0  9999
2 11239  82.9346 102.0199 0039890 322.0106  66.3518 13.76130250391904

Sigue SL-8 R/B en tiempo real con AllMySat

Download on the App Store